GW3703 Weather Reports


time (UTC)temp
C
wind
direction
speed
KPH
gust
KPH
rain 1hr
cm
rain 24hr
cm
rain mn
cm
humidity
%
barometer
mb
20260504033126 18 360 1.6 6.4 0.00 0.10 0.10 74 1018.2
20260504031558 18 360 0.0 6.4 0.00 0.10 0.10 73 1018.1
20260504030052 18 360 1.6 6.4 0.00 0.10 0.10 71 1018.2
20260504024553 18 360 3.2 8.0 0.00 0.10 0.10 70 1018.0
20260504023102 19 360 4.8 8.0 0.00 0.10 0.10 69 1017.9
20260504021556 20 360 3.2 8.0 0.00 0.10 0.10 68 1017.8
20260504020100 20 360 4.8 12.9 0.00 0.10 0.10 67 1017.4
20260504014558 20 360 4.8 9.7 0.00 0.13 0.10 65 1017.5
20260504013106 21 360 8.0 17.7 0.00 0.13 0.10 62 1017.4
20260504011553 21 360 9.7 19.3 0.00 0.13 0.10 60 1017.2
20260504010111 22 360 11.3 19.3 0.00 0.13 0.10 59 1017.2
20260504004612 22 360 12.9 22.5 0.00 0.13 0.10 57 1017.1
20260504003053 23 253 12.9 25.7 0.00 0.13 0.10 55 1017.2
20260504001601 23 271 16.1 25.7 0.00 0.13 0.10 51 1017.3
20260504000056 24 292 12.9 20.9 0.00 0.13 0.10 49 1017.3
20260503234554 25 278 16.1 24.1 0.00 0.13 0.10 45 1017.2
20260503233057 25 247 17.7 24.1 0.00 0.13 0.10 42 1017.1
20260503231559 25 267 16.1 25.7 0.03 0.13 0.10 40 1017.0
20260503224559 26 254 6.4 16.1 0.03 0.13 0.10 37 1017.4
20260503223100 26 285 6.4 19.3 0.03 0.13 0.10 39 1017.7
20260503221557 26 254 9.7 20.9 0.00 0.10 0.08 42 1017.7
20260503220055 26 258 11.3 20.9 0.00 0.10 0.08 41 1017.9
20260503214559 26 263 11.3 24.1 0.00 0.10 0.08 39 1018.1
20260503213111 26 259 11.3 19.3 0.00 0.10 0.08 40 1018.4
20260503211554 26 279 11.3 17.7 0.00 0.10 0.08 39 1018.6
20260503210100 26 259 9.7 17.7 0.00 0.10 0.08 38 1018.7
20260503204600 26 252 6.4 22.5 0.00 0.13 0.08 38 1019.1
20260503203105 26 280 14.5 22.5 0.00 0.13 0.08 37 1019.5
20260503201604 26 246 4.8 14.5 0.00 0.13 0.08 42 1019.6
20260503200101 26 285 11.3 16.1 0.00 0.13 0.08 39 1019.8
20260503194602 27 238 3.2 16.1 0.00 0.13 0.08 36 1020.0
20260503193110 26 301 3.2 22.5 0.03 0.13 0.08 36 1020.2
20260503191635 26 288 8.0 17.7 0.03 0.13 0.08 34 1020.4
20260503190103 25 267 1.6 17.7 0.03 0.13 0.08 38 1020.5
20260503184559 26 256 8.0 19.3 0.03 0.15 0.08 37 1020.9
20260503183112 25 0 1.6 25.7 0.00 0.13 0.05 38 1021.2
20260503181555 25 274 16.1 24.1 0.00 0.13 0.05 44 1021.4
20260503180054 25 254 0.0 20.9 0.00 0.13 0.05 44 1021.7
20260503174554 25 257 8.0 17.7 0.00 0.13 0.05 41 1022.0
20260503173116 24 285 4.8 16.1 0.00 0.13 0.05 46 1022.1
20260503171554 24 289 8.0 22.5 0.03 0.13 0.05 44 1022.5
20260503120114 11 0 0.0 0.0 0.03 0.15 0.03 91 1021.7
20260503100105 11 0 0.0 0.0 0.00 0.15 0.00 91 1020.9
20260503081556 12 0 0.0 0.0 0.00 0.18 0.00 90 1020.9
20260503071554 12 0 0.0 0.0 0.00 0.18 0.00 90 1021.1
20260503070104 12 0 0.0 0.0 0.00 0.18 0.00 90 1021.1
20260503054552 13 0 0.0 0.0 0.00 0.20 0.00 88 1021.4
20260503053051 13 0 0.0 0.0 0.00 0.20 0.00 88 1021.2
20260503051553 13 0 0.0 0.0 0.00 0.20 0.00 88 1021.1
20260503050055 13 0 0.0 0.0 0.00 0.20 0.00 87 1021.0
20260503044553 13 0 0.0 0.0 0.00 0.23 0.20 87 1021.2
20260503043051 13 0 0.0 0.0 0.00 0.23 0.20 86 1021.3
20260503041604 14 0 0.0 0.0 0.00 0.23 0.20 84 1021.1
20260503040058 14 0 0.0 0.0 0.00 0.23 0.20 83 1021.0
20260503034605 14 0 0.0 0.0 0.00 0.25 0.20 84 1020.9